This is the latest recevied weather packets stored in our database for station/object VA3BOO. If no packets are shown the sender has not sent any weather packets the latest 10 day(s).
| Time | Temp. | Humidity | Pressure | Rain* | Wind** | Luminosity | Snow |
|---|---|---|---|---|---|---|---|
| 1777827605 | 11.11° C | 45% | 1010.8 hPa | 0 mm | - | 823 W/m² | - |
| 1777827305 | 11.11° C | 44% | 1010.7 hPa | 0 mm | - | 825 W/m² | - |
| 1777827004 | 11.67° C | 44% | 1010.9 hPa | 0 mm | - | 818 W/m² | - |
| 1777826704 | 11.67° C | 44% | 1010.7 hPa | 0 mm | - | 813 W/m² | - |
| 1777826405 | 12.22° C | 42% | 1010.8 hPa | 0 mm | - | 819 W/m² | - |
| 1777826105 | 12.22° C | 43% | 1011 hPa | 0 mm | - | 811 W/m² | - |
| 1777825805 | 11.67° C | 44% | 1010.9 hPa | 0 mm | - | 809 W/m² | - |
| 1777825505 | 11.11° C | 46% | 1011 hPa | 0 mm | - | 811 W/m² | - |
| 1777825204 | 11.11° C | 45% | 1011 hPa | 0 mm | - | 814 W/m² | - |
| 1777824905 | 11.67° C | 46% | 1011 hPa | 0 mm | - | 817 W/m² | - |
| 1777824605 | 11.67° C | 45% | 1011.1 hPa | 0 mm | - | 772 W/m² | - |
| 1777824305 | 11.67° C | 46% | 1011.3 hPa | 0 mm | - | 818 W/m² | - |
| 1777824004 | 12.22° C | 45% | 1011.3 hPa | 0 mm | - | 822 W/m² | - |
| 1777823705 | 12.22° C | 44% | 1011.4 hPa | 0 mm | - | 901 W/m² | - |
| 1777823404 | 12.22° C | 42% | 1011.3 hPa | 0 mm | - | 867 W/m² | - |
| 1777822805 | 11.67° C | 43% | 1011.5 hPa | 0 mm | - | 918 W/m² | - |
| 1777822504 | 11.11° C | 42% | 1011.3 hPa | 0 mm | - | 875 W/m² | - |
| 1777822204 | 10.56° C | 42% | 1011.3 hPa | 0 mm | - | 774 W/m² | - |
| 1777821905 | 11.67° C | 40% | 1011.6 hPa | 0 mm | - | 134 W/m² | - |
| 1777821604 | 11.67° C | 39% | 1011.8 hPa | 0 mm | - | 864 W/m² | - |
| 1777821304 | 11.67° C | 38% | 1011.8 hPa | 0 mm | - | 113 W/m² | - |
| 1777821005 | 11.67° C | 39% | 1011.9 hPa | 0 mm | - | 725 W/m² | - |
| 1777820705 | 11.67° C | 37% | 1011.8 hPa | 0 mm | - | 701 W/m² | - |
| 1777820405 | 11.11° C | 37% | 1011.9 hPa | 0 mm | - | 686 W/m² | - |
| 1777820105 | 11.11° C | 36% | 1011.9 hPa | 0 mm | - | 675 W/m² | - |
* Rain latest hour (hover to see other rain measurements)
** Current wind speed in m/s (hover to see current wind gust speed)